This is the latest recevied weather packets stored in our database for station/object LU3HGB-WX. If no packets are shown the sender has not sent any weather packets the latest 10 day(s).
| Time | Temp. | Humidity | Pressure | Rain* | Wind** | Luminosity | Snow |
|---|---|---|---|---|---|---|---|
| 1777469863 | 11.11° C | 81% | 1016 hPa | 0 mm | - | 231 W/m² | - |
| 1777469560 | 10.56° C | 78% | 1016 hPa | 0 mm | - | 325 W/m² | - |
| 1777469260 | 10.56° C | 78% | 1016 hPa | 0 mm | - | 268 W/m² | - |
| 1777468960 | 10.56° C | 78% | 1016 hPa | 0 mm | - | 223 W/m² | - |
| 1777468662 | 11.11° C | 80% | 1016 hPa | 0 mm | - | 218 W/m² | - |
| 1777468359 | 11.11° C | 79% | 1016 hPa | 0 mm | - | 213 W/m² | - |
| 1777468060 | 11.67° C | 77% | 1016 hPa | 0 mm | - | 223 W/m² | - |
| 1777467760 | 11.67° C | 76% | 1016 hPa | 0 mm | - | 289 W/m² | - |
| 1777467460 | 11.11° C | 74% | 1016 hPa | 0 mm | - | 223 W/m² | - |
| 1777467160 | 10.56° C | 77% | 1016 hPa | 0 mm | - | 408 W/m² | - |
| 1777466860 | 10.56° C | 80% | 1016 hPa | 0 mm | - | 331 W/m² | - |
| 1777466561 | 9.44° C | 79% | 1016 hPa | 0 mm | - | 371 W/m² | - |
| 1777466261 | 8.89° C | 81% | 1016 hPa | 0 mm | - | 309 W/m² | - |
| 1777465959 | 8.89° C | 81% | 1016 hPa | 0 mm | - | 257 W/m² | - |
| 1777465660 | 7.78° C | 84% | 1016 hPa | 0 mm | - | 223 W/m² | - |
| 1777465360 | 7.22° C | 85% | 1016 hPa | 0 mm | - | 204 W/m² | - |
| 1777465060 | 6.67° C | 90% | 1016 hPa | 0 mm | - | 186 W/m² | - |
| 1777464761 | 6.11° C | 95% | 1016 hPa | 0 mm | - | 171 W/m² | - |
| 1777464459 | 5.56° C | 95% | 1016 hPa | 0 mm | - | 147 W/m² | - |
| 1777464161 | 4.44° C | 95% | 1016 hPa | 0 mm | - | 125 W/m² | - |
| 1777463860 | 3.89° C | 95% | 1016 hPa | 0 mm | - | 111 W/m² | - |
| 1777463561 | 3.33° C | 95% | 1016 hPa | 0 mm | - | 84 W/m² | - |
| 1777463260 | 2.78° C | 95% | 1016 hPa | 0 mm | - | 78 W/m² | - |
| 1777462959 | 2.22° C | 95% | 1015 hPa | 0 mm | - | 57 W/m² | - |
| 1777462660 | 1.67° C | 95% | 1015 hPa | 0 mm | - | 48 W/m² | - |
* Rain latest hour (hover to see other rain measurements)
** Current wind speed in m/s (hover to see current wind gust speed)